Weather History for Mount Ida, AR

Change the Weather History Date:

Monday, April 1, 2013

  Actual Average (KHOT) Record (KHOT)
Temperature  
Mean Temperature 58 °F -  
Max Temperature 77 °F 72 °F 93 °F (1974)
Min Temperature 39 °F 46 °F 29 °F (1987)
Degree Days  
Heating Degree Days 7    
Growing Degree Days 8 (Base 50)    
Moisture  
Dew Point 44 °F    
Average Humidity 70    
Maximum Humidity 100    
Minimum Humidity 26    
Precipitation  
Precipitation 0.00 in - - ()
Sea Level Pressure  
Sea Level Pressure 30.02 in    
Wind  
Wind Speed 1 mph (SE)    
Max Wind Speed 7 mph    
Max Gust Speed -    
Visibility 8 miles    
Events      
Averages and records for this station are not official NWS values.
T = Trace of Precipitation, MM = Missing Value Source: NWS Daily Summary

Daily Weather History Graph

Daily Weather History Graph

Search for Another Location

Airport:

Trip Planner

Search our weather history database for the weather conditions in past years. The results will help you decide how hot, cold, wet, or windy it might be!

Date:

Astronomy

Apr. 01, 2013 Rise Set
Actual Time 7:01 AM CDT 7:35 PM CDT
Civil Twilight 6:35 AM CDT 8:00 PM CDT
Nautical Twilight 6:05 AM CDT 8:30 PM CDT
Astronomical Twilight 5:35 AM CDT 9:01 PM CDT
Moon 12:33 AM CDT (4/1) 10:59 AM CDT (4/1)
Length of Visible Light 13h 25m
Length of Day
12h 34m
Waning Gibbous, 67% of the Moon is Illuminated
Apr 1
Waning Gibbous
Apr 2
Last Quarter
Apr 10
New
Apr 18
First Quarter
Apr 25
Full

Hourly Weather History & Observations

Time (CDT) Temp. Dew Point Humidity Pressure Visibility Wind Dir Wind Speed Gust Speed Precip Events Conditions
12:53 AM 48.0 °F 46.9 °F 96% 29.96 in 6.0 mi Calm Calm - N/A   Clear
1:53 AM 45.0 °F 44.1 °F 97% 29.97 in 8.0 mi Calm Calm - N/A   Clear
2:53 AM 45.0 °F 44.1 °F 97% 29.98 in 6.0 mi Calm Calm - N/A   Clear
3:53 AM 45.0 °F 44.1 °F 97% 29.98 in 3.0 mi Calm Calm - N/A   Clear
4:16 AM 44.6 °F 42.8 °F 93% 29.98 in 1.8 mi Calm Calm - N/A   Clear
4:21 AM 44.6 °F 42.8 °F 93% 29.98 in 3.0 mi Calm Calm - N/A   Clear
4:53 AM 43.0 °F 42.1 °F 97% 29.98 in 7.0 mi Calm Calm - N/A   Clear
5:53 AM 41.0 °F 41.0 °F 100% 30.00 in 4.0 mi Calm Calm - N/A   Clear
6:27 AM 42.8 °F 41.0 °F 93% 30.01 in 1.8 mi Calm Calm - N/A   Clear
6:35 AM 42.8 °F 41.0 °F 93% 30.01 in 2.0 mi Calm Calm - N/A   Clear
6:42 AM 42.8 °F 41.0 °F 93% 30.02 in 9.0 mi Calm Calm - N/A   Clear
6:53 AM 41.0 °F 41.0 °F 100% 30.02 in 10.0 mi Calm Calm - N/A   Clear
7:53 AM 39.9 °F 39.9 °F 100% 30.06 in 9.0 mi Calm Calm - N/A   Clear
8:53 AM 50.0 °F 46.9 °F 89% 30.07 in 10.0 mi Calm Calm - N/A   Clear
9:53 AM 59.0 °F 50.0 °F 72% 30.07 in 10.0 mi Calm Calm - N/A   Clear
10:53 AM 64.0 °F 48.9 °F 58% 30.06 in 10.0 mi SSE 3.5 mph - N/A   Clear
11:53 AM 68.0 °F 41.0 °F 37% 30.07 in 10.0 mi Calm Calm - N/A   Clear
12:53 PM 71.1 °F 37.9 °F 30% 30.06 in 10.0 mi Variable 3.5 mph - N/A   Clear
1:53 PM 72.0 °F 37.9 °F 29% 30.04 in 10.0 mi Calm Calm - N/A   Clear
2:53 PM 73.9 °F 39.0 °F 28% 30.02 in 10.0 mi SE 5.8 mph - N/A   Clear
3:53 PM 75.9 °F 41.0 °F 29% 30.01 in 10.0 mi Calm Calm - N/A   Clear
4:53 PM 77.0 °F 39.9 °F 26% 29.99 in 10.0 mi NW 5.8 mph - N/A   Clear
5:53 PM 75.9 °F 39.9 °F 27% 29.99 in 10.0 mi Calm Calm - N/A   Clear
6:53 PM 70.0 °F 46.0 °F 42% 29.99 in 10.0 mi Calm Calm - N/A   Partly Cloudy
7:53 PM 64.9 °F 44.1 °F 47% 30.00 in 10.0 mi Calm Calm - N/A   Scattered Clouds
8:53 PM 63.0 °F 48.9 °F 60% 30.01 in 10.0 mi Calm Calm - N/A   Scattered Clouds
9:53 PM 63.0 °F 48.9 °F 60% 30.02 in 10.0 mi SE 6.9 mph - N/A   Clear
10:53 PM 60.1 °F 50.0 °F 69% 30.05 in 10.0 mi Calm Calm - N/A   Clear
11:53 PM 59.0 °F 50.0 °F 72% 30.07 in 10.0 mi Calm Calm - N/A   Clear